Location: Albany
(35.0170°S, 117.8920°E)
Time: 03:00:15
(UTC+08:00)

Vanguard 1 - Pass Details

Date: 25 January 2021
Orbit: 649 x 3833 km, 34.2° (Epoch: 26 February)

Event Time Altitude Azimuth Distance (km) Brightness Sun altitude
Rises 06:40:30 0° 265° (W) 3,048 12.0 14.7°
Reaches altitude 10° 06:42:43 10° 275° (W) 2,245 11.4 15.1°
Maximum altitude 06:47:17 34° 340° (NNW) 1,464 10.9 16.0°
Drops below altitude 10° 06:54:00 10° 42° (NE) 3,344 13.3 17.4°
Sets 06:58:06 0° 49° (NE) 4,820 14.2 18.2°
